• Em Portugal
  • Lista de países
  • Para 7 dias
  • Temperatura da água
  • Mapas de satélite
  • Mapa do tempo
  • Widgets de tempo
  • user-avatar
    Iniciar Sessão

    Previsão horária em Chien

    Hoje, 22 Setembro, Sábado

    Tempo Temperatura Precipitação Vento Pressão Humidade
    00:00 +24°C° 1.8 mm 1 m/s 740 mmHg 98%
    01:00 +24°C° 1.8 mm 1 m/s 740 mmHg 98%
    02:00 +24°C° 1.8 mm 1 m/s 740 mmHg 98%
    03:00 +24°C° 1.8 mm 1 m/s 740 mmHg 98%
    04:00 +24°C° 1.8 mm 1 m/s 740 mmHg 98%
    05:00 +24°C° 1.8 mm 1 m/s 740 mmHg 98%
    06:00 +24°C° 1.7 mm 1 m/s 740 mmHg 97%
    07:00 +25°C° 1.7 mm 1 m/s 741 mmHg 95%
    08:00 +26°C° 1.7 mm 1 m/s 741 mmHg 94%
    09:00 +27°C° 1.1 mm 1 m/s 741 mmHg 91%
    10:00 +27°C° 1.1 mm 1 m/s 741 mmHg 89%
    11:00 +28°C° 1.1 mm 1 m/s 740 mmHg 86%
    12:00 +28°C° 1 mm 1 m/s 740 mmHg 87%
    13:00 +28°C° 1 mm 1 m/s 739 mmHg 87%
    14:00 +28°C° 1 mm 1 m/s 738 mmHg 88%
    15:00 +28°C° 1.3 mm 1 m/s 739 mmHg 90%
    16:00 +27°C° 1.3 mm 1 m/s 739 mmHg 93%
    17:00 +26°C° 1.3 mm 1 m/s 739 mmHg 95%
    18:00 +26°C° 1.3 mm 1 m/s 740 mmHg 96%
    19:00 +25°C° 1.3 mm 1 m/s 740 mmHg 97%
    20:00 +25°C° 1.3 mm 1 m/s 741 mmHg 98%
    21:00 +24°C° 0.4 mm 1 m/s 741 mmHg 98%
    22:00 +24°C° 0.4 mm 1 m/s 741 mmHg 98%
    23:00 +24°C° 0.4 mm 1 m/s 741 mmHg 99%

    Amanhã, 23 Setembro, Domingo

    Tempo Temperatura Precipitação Vento Pressão Humidade
    00:00 +24°C° 0.1 mm 1 m/s 741 mmHg 99%
    01:00 +24°C° 0.1 mm 1 m/s 740 mmHg 99%
    02:00 +24°C° 0.1 mm 1 m/s 740 mmHg 99%
    03:00 +24°C° 0.3 mm 1 m/s 740 mmHg 99%
    04:00 +24°C° 0.3 mm 1 m/s 740 mmHg 99%
    05:00 +22°C° 0.3 mm 0 m/s 740 mmHg 99%
    06:00 +22°C° 0.3 mm 0 m/s 740 mmHg 97%
    07:00 +23°C° 0.3 mm 0 m/s 741 mmHg 95%
    08:00 +24°C° 0.3 mm 0 m/s 741 mmHg 93%
    09:00 +24°C° 0.6 mm 0 m/s 741 mmHg 92%
    10:00 +24°C° 0.6 mm 0 m/s 741 mmHg 92%
    11:00 +27°C° 0.6 mm 1 m/s 741 mmHg 91%
    12:00 +27°C° 0.9 mm 1 m/s 740 mmHg 90%
    13:00 +28°C° 0.9 mm 1 m/s 739 mmHg 88%
    14:00 +28°C° 0.9 mm 1 m/s 739 mmHg 87%
    15:00 +28°C° 0.6 mm 1 m/s 739 mmHg 89%
    16:00 +27°C° 0.6 mm 1 m/s 739 mmHg 91%
    17:00 +27°C° 0.6 mm 1 m/s 739 mmHg 93%
    18:00 +26°C° 0.6 mm 1 m/s 740 mmHg 95%
    19:00 +25°C° 0.6 mm 1 m/s 740 mmHg 96%
    20:00 +25°C° 0.6 mm 1 m/s 741 mmHg 98%
    21:00 +25°C° 0.2 mm 1 m/s 741 mmHg 98%
    22:00 +24°C° 0.2 mm 1 m/s 741 mmHg 99%
    23:00 +24°C° 0.2 mm 1 m/s 741 mmHg 99%

    Depois de amanhã, 24 Setembro, Segunda-feira

    Tempo Temperatura Precipitação Vento Pressão Humidade
    00:00 +24°C° 0.1 mm 1 m/s 741 mmHg 99%
    01:00 +24°C° 0.1 mm 1 m/s 740 mmHg 99%
    02:00 +24°C° 0.1 mm 1 m/s 739 mmHg 99%
    03:00 +24°C° 0 mm 1 m/s 739 mmHg 99%
    04:00 +22°C° 0 mm 0 m/s 739 mmHg 99%
    05:00 +22°C° 0 mm 0 m/s 740 mmHg 99%
    06:00 +25°C° 0 mm 1 m/s 740 mmHg 96%
    07:00 +25°C° 0 mm 1 m/s 741 mmHg 94%
    08:00 +26°C° 0 mm 1 m/s 741 mmHg 91%
    09:00 +28°C° 0.7 mm 1 m/s 741 mmHg 86%
    10:00 +27°C° 0.7 mm 0 m/s 741 mmHg 81%
    11:00 +29°C° 0.7 mm 0 m/s 741 mmHg 77%
    12:00 +31°C° 1.4 mm 1 m/s 740 mmHg 77%
    13:00 +30°C° 1.4 mm 1 m/s 739 mmHg 78%
    14:00 +30°C° 1.4 mm 1 m/s 738 mmHg 79%
    15:00 +29°C° 2 mm 1 m/s 738 mmHg 84%
    16:00 +28°C° 2 mm 1 m/s 739 mmHg 90%
    17:00 +26°C° 2 mm 1 m/s 739 mmHg 95%
    18:00 +26°C° 2.3 mm 1 m/s 740 mmHg 96%
    19:00 +25°C° 2.3 mm 1 m/s 740 mmHg 96%
    20:00 +25°C° 2.3 mm 1 m/s 741 mmHg 97%
    21:00 +25°C° 0.8 mm 1 m/s 741 mmHg 97%
    22:00 +25°C° 0.8 mm 1 m/s 741 mmHg 98%
    23:00 +24°C° 0.8 mm 1 m/s 741 mmHg 98%

    25 Setembro, Terça-feira

    Tempo Temperatura Precipitação Vento Pressão Humidade
    00:00 +24°C° 0 mm 1 m/s 740 mmHg 99%
    01:00 +24°C° 0 mm 1 m/s 740 mmHg 99%
    02:00 +24°C° 0 mm 1 m/s 739 mmHg 99%
    03:00 +24°C° 0 mm 1 m/s 739 mmHg 99%
    04:00 +24°C° 0 mm 1 m/s 739 mmHg 99%
    05:00 +24°C° 0 mm 1 m/s 740 mmHg 99%
    06:00 +23°C° 0 mm 0 m/s 740 mmHg 97%
    07:00 +23°C° 0 mm 0 m/s 741 mmHg 95%
    08:00 +24°C° 0 mm 0 m/s 741 mmHg 93%
    09:00 +25°C° 0.1 mm 0 m/s 741 mmHg 89%
    10:00 +26°C° 0.1 mm 0 m/s 741 mmHg 85%
    11:00 +27°C° 0.1 mm 0 m/s 741 mmHg 82%
    12:00 +28°C° 0.6 mm 0 m/s 740 mmHg 77%
    13:00 +29°C° 0.6 mm 0 m/s 739 mmHg 72%
    14:00 +30°C° 0.6 mm 0 m/s 738 mmHg 67%
    15:00 +31°C° 0.6 mm 1 m/s 738 mmHg 73%
    16:00 +29°C° 0.6 mm 1 m/s 738 mmHg 80%
    17:00 +28°C° 0.6 mm 1 m/s 738 mmHg 86%
    18:00 +27°C° 0.3 mm 1 m/s 739 mmHg 90%
    19:00 +26°C° 0.3 mm 1 m/s 740 mmHg 94%
    20:00 +25°C° 0.3 mm 1 m/s 741 mmHg 97%
    21:00 +25°C° 0.3 mm 1 m/s 741 mmHg 98%
    22:00 +24°C° 0.3 mm 1 m/s 741 mmHg 98%
    23:00 +24°C° 0.3 mm 1 m/s 741 mmHg 99%

    26 Setembro, Quarta-feira

    Tempo Temperatura Precipitação Vento Pressão Humidade
    00:00 +24°C° 0.4 mm 1 m/s 740 mmHg 99%
    01:00 +24°C° 0.4 mm 1 m/s 740 mmHg 99%
    02:00 +24°C° 0.4 mm 1 m/s 739 mmHg 99%
    03:00 +22°C° 0.5 mm 0 m/s 739 mmHg 99%
    04:00 +22°C° 0.5 mm 0 m/s 740 mmHg 99%
    05:00 +22°C° 0.5 mm 0 m/s 740 mmHg 99%
    06:00 +23°C° 0.1 mm 0 m/s 740 mmHg 97%
    07:00 +25°C° 0.1 mm 1 m/s 741 mmHg 95%
    08:00 +26°C° 0.1 mm 1 m/s 741 mmHg 93%
    09:00 +28°C° 0 mm 1 m/s 741 mmHg 84%
    10:00 +30°C° 0 mm 1 m/s 740 mmHg 75%
    11:00 +32°C° 0 mm 1 m/s 740 mmHg 65%
    12:00 +32°C° 0.5 mm 1 m/s 739 mmHg 67%
    13:00 +32°C° 0.5 mm 1 m/s 738 mmHg 69%
    14:00 +32°C° 0.5 mm 1 m/s 737 mmHg 71%
    15:00 +30°C° 1.5 mm 1 m/s 737 mmHg 78%
    16:00 +29°C° 1.5 mm 1 m/s 738 mmHg 86%
    17:00 +27°C° 1.5 mm 1 m/s 738 mmHg 94%
    18:00 +26°C° 0.5 mm 1 m/s 738 mmHg 95%
    19:00 +25°C° 0.5 mm 2 m/s 739 mmHg 96%
    20:00 +25°C° 0.5 mm 2 m/s 740 mmHg 97%
    21:00 +25°C° 1.3 mm 2 m/s 740 mmHg 98%
    22:00 +25°C° 1.3 mm 1 m/s 740 mmHg 98%
    23:00 +25°C° 1.3 mm 1 m/s 740 mmHg 98%

    27 Setembro, Quinta-feira

    Tempo Temperatura Precipitação Vento Pressão Humidade
    00:00 +25°C° 3 mm 1 m/s 739 mmHg 98%
    01:00 +25°C° 3 mm 1 m/s 739 mmHg 97%
    02:00 +25°C° 3 mm 1 m/s 738 mmHg 96%
    03:00 +25°C° 2.1 mm 1 m/s 739 mmHg 96%
    04:00 +25°C° 2.1 mm 1 m/s 739 mmHg 97%
    05:00 +24°C° 2.1 mm 1 m/s 739 mmHg 97%
    06:00 +25°C° 1.2 mm 1 m/s 740 mmHg 96%
    07:00 +25°C° 1.2 mm 1 m/s 740 mmHg 96%
    08:00 +26°C° 1.2 mm 1 m/s 741 mmHg 95%
    09:00 +26°C° 0.9 mm 1 m/s 740 mmHg 94%
    10:00 +27°C° 0.9 mm 1 m/s 740 mmHg 92%
    11:00 +28°C° 0.9 mm 1 m/s 740 mmHg 91%
    12:00 +28°C° 1 mm 1 m/s 739 mmHg 91%
    13:00 +28°C° 1 mm 1 m/s 739 mmHg 92%
    14:00 +28°C° 1 mm 1 m/s 738 mmHg 92%
    15:00 +27°C° 1.1 mm 1 m/s 738 mmHg 93%
    16:00 +27°C° 1.1 mm 1 m/s 739 mmHg 95%
    17:00 +26°C° 1.1 mm 1 m/s 739 mmHg 96%
    18:00 +26°C° 0.3 mm 1 m/s 740 mmHg 97%
    19:00 +25°C° 0.3 mm 1 m/s 740 mmHg 98%
    20:00 +24°C° 0.3 mm 1 m/s 741 mmHg 99%
    21:00 +24°C° 0 mm 1 m/s 741 mmHg 99%
    22:00 +24°C° 0 mm 1 m/s 740 mmHg 99%
    23:00 +24°C° 0 mm 1 m/s 740 mmHg 99%
    Mostrar mais